This is the latest recevied weather packets stored in our database for station/object WA6ODQ-13. If no packets are shown the sender has not sent any weather packets the latest 10 day(s).
| Time | Temp. | Humidity | Pressure | Rain* | Wind** | Luminosity | Snow |
|---|---|---|---|---|---|---|---|
| 1777587993 | 28.33° C | 46% | 1010.2 hPa | 0 mm | - | 576 W/m² | - |
| 1777587689 | 27.78° C | 47% | 1010.3 hPa | 0 mm | - | 585 W/m² | - |
| 1777587389 | 27.78° C | 48% | 1010.4 hPa | 0 mm | - | 595 W/m² | - |
| 1777587085 | 27.78° C | 47% | 1010.5 hPa | 0 mm | - | 604 W/m² | - |
| 1777586781 | 27.78° C | 47% | 1010.8 hPa | 0 mm | - | 615 W/m² | - |
| 1777586476 | 27.78° C | 47% | 1010.8 hPa | 0 mm | - | 623 W/m² | - |
| 1777586172 | 27.78° C | 47% | 1010.9 hPa | 0 mm | - | 632 W/m² | - |
| 1777585870 | 27.22° C | 48% | 1010.8 hPa | 0 mm | - | 641 W/m² | - |
| 1777585565 | 27.22° C | 47% | 1010.8 hPa | 0 mm | - | 649 W/m² | - |
| 1777585261 | 26.67° C | 48% | 1010.8 hPa | 0 mm | - | 656 W/m² | - |
| 1777584955 | 26.67° C | 48% | 1011 hPa | 0 mm | - | 663 W/m² | - |
| 1777584653 | 26.67° C | 48% | 1011.1 hPa | 0 mm | - | 670 W/m² | - |
| 1777584350 | 26.67° C | 48% | 1011 hPa | 0 mm | - | 678 W/m² | - |
| 1777584046 | 26.67° C | 47% | 1011 hPa | 0 mm | - | 684 W/m² | - |
| 1777583746 | 26.11° C | 48% | 1011.1 hPa | 0 mm | - | 690 W/m² | - |
| 1777583444 | 26.11° C | 49% | 1011.2 hPa | 0 mm | - | 695 W/m² | - |
| 1777583139 | 26.67° C | 48% | 1011.2 hPa | 0 mm | - | 698 W/m² | - |
| 1777582835 | 26.11° C | 48% | 1011.1 hPa | 0 mm | - | 705 W/m² | - |
| 1777582533 | 26.11° C | 49% | 1011.3 hPa | 0 mm | - | 708 W/m² | - |
| 1777582227 | 26.11° C | 48% | 1011.4 hPa | 0 mm | - | 713 W/m² | - |
| 1777581925 | 25.56° C | 48% | 1011.3 hPa | 0 mm | - | 717 W/m² | - |
| 1777581621 | 25.56° C | 48% | 1011.4 hPa | 0 mm | - | 720 W/m² | - |
| 1777581314 | 25.56° C | 48% | 1011.4 hPa | 0 mm | - | 723 W/m² | - |
| 1777581004 | 25.56° C | 49% | 1011.3 hPa | 0 mm | - | 725 W/m² | - |
| 1777580704 | 25.56° C | 50% | 1011.4 hPa | 0 mm | - | 727 W/m² | - |
* Rain latest hour (hover to see other rain measurements)
** Current wind speed in m/s (hover to see current wind gust speed)